CES9865 RJTT-EDDM

Flight info

Callsign CES9865
Flight time N/A
Altitude 37000
Route INUBO Y808 PUTER A590 POWAL DCT OPAKE/N0487F390 DCT MARCC DCT JUJXI DCT 76N160W DCT PEASY/N0492F410 DCT 85N120W 85N100W 85N080W DCT PELRI/M085F410 DCT 81N020W 73N000W/N0480F410 DCT TEDVU DCT NERDO DCT RAXLU DCT GARLU DCT EMBOX DCT SODRO/N0491F310 T703 LULAR/N0492F300 T105 LANDU LULAR2C
Aircraft A359/H-SDE2E3GHIJ3J4J5LM1ORWXY/LB1D1

Departure

Time 2026-02-18 21:35
Airport Tokyo Haneda International Airport (RJTT)

Arrival

Time N/A
Airport Munich Airport (EDDM)
Time Latitude Longitude Altitude Speed Heading
2026-02-18 21:20 35.55532 139.78659 30 ft 0 kts 148°
2026-02-18 21:25 35.55536 139.78656 30 ft 3 kts 148°
2026-02-18 21:25 35.55552 139.78645 29 ft 3 kts 140°
2026-02-18 21:26 35.55565 139.78625 27 ft 3 kts 99°
2026-02-18 21:26 35.55564 139.78603 27 ft 1 kts 66°
2026-02-18 21:27 35.55565 139.78604 27 ft 1 kts 66°
2026-02-18 21:27 35.55567 139.78609 28 ft 0 kts 61°
2026-02-18 21:29 35.55576 139.78622 29 ft 4 kts 51°
2026-02-18 21:29 35.55606 139.78667 30 ft 8 kts 52°
2026-02-18 21:29 35.55642 139.78735 30 ft 11 kts 58°
2026-02-18 21:30 35.55682 139.78821 30 ft 9 kts 61°
2026-02-18 21:30 35.55715 139.78890 30 ft 11 kts 60°
2026-02-18 21:30 35.55733 139.78980 29 ft 11 kts 109°
2026-02-18 21:30 35.55678 139.79045 29 ft 12 kts 147°
2026-02-18 21:31 35.55604 139.79099 29 ft 13 kts 149°
2026-02-18 21:31 35.55517 139.79160 29 ft 15 kts 150°
2026-02-18 21:31 35.55419 139.79230 29 ft 18 kts 150°
2026-02-18 21:31 35.55305 139.79310 29 ft 20 kts 150°
2026-02-18 21:32 35.55180 139.79400 29 ft 22 kts 150°
2026-02-18 21:32 35.55042 139.79499 29 ft 24 kts 150°
2026-02-18 21:32 35.54894 139.79603 29 ft 25 kts 150°
2026-02-18 21:32 35.54737 139.79715 29 ft 27 kts 150°
2026-02-18 21:33 35.54392 139.79959 30 ft 30 kts 150°
2026-02-18 21:33 35.54250 139.80059 30 ft 10 kts 149°
2026-02-18 21:33 35.54198 139.80121 28 ft 11 kts 113°
2026-02-18 21:34 35.54217 139.80210 30 ft 11 kts 63°
2026-02-18 21:34 35.54267 139.80267 30 ft 9 kts 21°
2026-02-18 21:34 35.54321 139.80261 30 ft 7 kts 342°
2026-02-18 21:34 35.54367 139.80229 30 ft 10 kts 329°
2026-02-18 21:35 35.54626 139.80043 30 ft 83 kts 330°
2026-02-18 21:35 35.55349 139.79529 32 ft 154 kts 329°
2026-02-18 21:35 35.56402 139.78794 463 ft 183 kts 333°
2026-02-18 21:35 35.57597 139.78685 1468 ft 173 kts 15°
2026-02-18 21:36 35.58558 139.79677 1913 ft 196 kts 45°
2026-02-18 21:36 35.59417 139.81076 2224 ft 212 kts 46°
2026-02-18 21:36 35.60391 139.82557 2444 ft 236 kts 47°
2026-02-18 21:36 35.61081 139.84448 2795 ft 259 kts 77°
2026-02-18 21:37 35.61133 139.86906 3436 ft 267 kts 89°
2026-02-18 21:37 35.61062 139.89193 3983 ft 275 kts 91°
2026-02-18 21:37 35.61033 139.91575 4587 ft 279 kts 86°
2026-02-18 21:38 35.61538 139.93862 5255 ft 278 kts 58°
2026-02-18 21:38 35.62838 139.95564 5866 ft 273 kts 27°
2026-02-18 21:38 35.64595 139.96302 6518 ft 266 kts
2026-02-18 21:38 35.66420 139.96471 7251 ft 262 kts 358°
2026-02-18 21:39 35.68236 139.96561 8021 ft 259 kts 356°
2026-02-18 21:39 35.70030 139.96654 8778 ft 257 kts 356°
2026-02-18 21:39 35.71815 139.96756 9549 ft 256 kts 356°
2026-02-18 21:39 35.73573 139.96707 10218 ft 252 kts 346°
2026-02-18 21:40 35.75287 139.96133 10517 ft 261 kts 335°
2026-02-18 21:40 35.77032 139.95307 10752 ft 276 kts 334°
2026-02-18 21:40 35.78843 139.94426 10997 ft 290 kts 334°
2026-02-18 21:40 35.80775 139.93498 11243 ft 304 kts 335°
2026-02-18 21:41 35.83134 139.92377 11523 ft 319 kts 335°
2026-02-18 21:41 35.84735 139.91621 11700 ft 328 kts 335°